Tracking 34719 objects as of 12-Jul-2026
HD Live streaming from Space Station
objects crossing your sky now

BLOCK DM-SL R/B

Track BLOCK DM-SL R/B now!


NORAD ID: 28900
Int'l Code: 2005-044B
Perigee: 293.3 km
Apogee: 30,618.7 km
Inclination: 2.9 °
Period: 534.9 minutes
Semi major axis: 21826 km
RCS: 18.3139 m2 (large)
Launch date: November 8, 2005
Source: Sea Launch (SEAL)
Launch site: SEA LAUNCH (SEAL)

Note: This is a ROCKET BODY
Your satellite tracking list
Your tracking list is empty




NASA's NSSDC Master Catalog

Two Line Element Set (TLE):
1 28900U 05044B   26193.21103985  .00001337  00000-0  57411-3 0  9997
2 28900   2.8663  88.9288 6946749  83.5297 344.5204  2.69222863185239
Source of the keplerian elements: AFSPC